NapervilleWeather.com

Find the Weather for any City, State  
or Zipcode, or Country:

Naperville, IL Weather
Local Radar

Local Radar

Graphs, Details
Graphs and Gauges
Detailed Weather
Detailed Reports
Ajax Version (old)
Davis Summary
Davis Current Weather Graphs
Davis 24 Hour Weather History
Cumulus

CW7164 Data

Weather Underground
www.awekas.at
Automatic Weather Map System
Latest Naperville, Illinois, weather
Weather For You
Maps
Temperature
Heat Index
Windchill
Humidity
Radar
Dew Point
Wind
Visibility
Visible Satellite
Satellite
Fronts
Snow Depth
Jet Stream
Flight Rules
Forecast Maps
Temperature Forecast
Maximum Temperature Forecast
Minimum Temperature Forecast
Dewpoint Forecast
Prevalent Weather
12Hr Probability of Precip.
Sky Cover
Health Maps
UV Forecast
Air Quality
Peak Air Quality Index
Weather Station
Davis Instruments Vantage Pro2
Current Conditions [Select Refresh to Update]

Updated: 1:57pm on 12/17/14

(location)
Currently:
25.6°F

Clear
Overcast

High: 26.1 °F< 
(10:50am
Low: 0.0 °F 
(12:00am)
Wind: WNW 0 mph
Calm
Gust: 8 mph
Today's High Wind: 11 mph (12:14pm)
Humidity: 71%
Pressure: 30.26 in  (Steady
Pressure Rate: -0.006 in/hr
Dew Point: 17.5°F
Wind Chill: 25.6 °F
Heat Index (feels like): 28.7 °F
Comfort Level: Uncomfortably Cold
Temperature Rate:  -0.02°F/hr
 
5 Day Forecast
 
Wed Thu Fri Sat Sun
Clear Clear Clear Clear Clear
Partly Cloudy Partly Cloudy Mostly Cloudy Mostly Cloudy Partly Cloudy
32 30 34 36 37
23 23 27 25 27

Records and Normals
 
Temperature Forecast Normal Record
High 32 0 0
(0)
Low 23 0 0
(0)
 
 
Weather Advisories
No Warnings
Full Advisory Text...
Weather Map

Web Cam

Almanac
 
Sunrise:  
7:14am
Moonrise: 
2:24am

Moon Phase:
21%

Sunset: 
4:23pm
Moonset:  
1:30pm
 Star Chart...
Rainfall Totals
Hourly Rain 0.00 in
Daily Rain: 0.00 in
Monthly Rain: 0.44 in
Yearly Rain: 34.33 in
Normal Rain, month to date: 0.00 in
Normal Rain, year to date: 0.00 in
Local Weather Exchange Network
Station ID City 
(Click for Map Location)
Neighborhood 
(Click for History)
Last Update (Date & Time) Temperature
 ()
Dew
Point ()
Humidity 
(%)
Wind 
(mph)
from the Wind Gust 
(mph) 
Pressure(in) Hourly
Rain(in)
KILNAPER15 Naperville Indian Hill Near Jefferson JHS 12/17 13:49:49 25.7 20.0 77 6 West 10 30.24 0.00
KILNAPER21 Naperville Saybrook 12/17 13:30:16 25.3 20.0 80 4 WNW 11 30.28 0.00
KILNAPER28 Naperville Pawnee Lane 12/17 13:47:23 30.2 21.0 69 0 North 0 30.28 0.00
KILNAPER25 Naperville brushhill-w 12/17 13:42:46 27.0 21.0 77 1 West 8 30.23 0.00
KILNAPER24 Naperville Brush Hill 12/17 13:45:51 26.7 21.0 78 1 WNW 4 30.18 0.00
KILNAPER19 Naperville Brookdale Lakes 12/17 13:49:54 26.0 20.0 79 2 WNW 5 30.18 0.00
KILNAPER7 Naperville NapervilleWeather.com Near Ogden and Naper Blvd 12/17 13:49:54 25.6 18.0 71 0 WSW 8 30.26 0.00
KILWARRE2 Warrenville Warrenville Neighborhood Weather 12/17 13:49:47 26.2 20.0 78 6 WNW 13 30.23 0.00
KILNAPER23 Naperville Naper Blvd at BNSF RR 12/17 13:49:48 25.8 20.0 78 1 WNW 7 30.25 0.00
KILNAPER27 Naperville River Rd and Rickert 12/17 10:51:37 68.2 48.0 48 0 NNW 0 30.12 0.00
KILLISLE9 Lisle Park Meadow Drive 12/17 13:45:57 27.0 20.0 75 0 North 0 30.24 0.00
KILNAPER9 Naperville 75th St. / Modaff Area 12/17 13:49:46 26.4 21.0 79 2 West 6 30.24 0.00
KILLISLE7 Lisle Beau Monde Drive 12/17 13:46:29 27.0 22.0 80 0 North 0 30.27 0.00
KILWHEAT8 Wheaton Wheaton Sanitary District 12/17 13:36:35 27.3 23.0 83 6 WNW 10 30.25 0.00
KILWHEAT11 Wheaton Wheaton SW Orth Ct 12/17 13:49:52 29.2 22.0 76 2 North 3 30.30 0.00
KILLOMBA6 Wheaton Danada West 12/17 13:49:19 25.7 19.0 75 0 NW 0 30.21 0.00
KILAUROR27 Aurora Stonehaven 12/17 13:40:06 25.7 20.0 79 7 WNW 0 30.07 0.00
KILNAPER16 Naperville SE Naperville / NE Clow Arpt 12/17 13:49:52 26.7 21.0 78 10 NW 13 30.25 0.00
KILNAPER22 Naperville Willow Ridge 12/17 13:42:54 27.0 22.0 82 1 East 0 30.03 0.00
KILWHEAT5 Wheaton N9ABF - West Wheaton 12/17 13:47:33 26.4 20.0 76 6 West 0 30.17 0.00
KILGLENE9 Glen Ellyn Valley View 12/17 13:37:51 27.0 21.0 78 2 West 0 30.09 0.00
KILNAPER26 Naperville Landore Drive 12/17 13:46:17 27.5 21.0 76 0 North 0 30.22 0.00
KILWINFI2 Winfield Winfield Heights (SarahNet) 12/17 13:44:03 25.7 20.0 80 0 WNW 5 30.25 0.00
KILWOODR4 Woodridge Woodridge Neighborhood Weather 12/17 13:39:28 27.3 21.0 76 4 NW 14 30.23 0.00
KILWINFI3 Winfield Fredericksburg Farm 12/17 13:49:52 24.9 19.0 79 1 WNW 6 30.16 0.00
KILWHEAT10 Wheaton Wheaton College 12/17 13:45:17 24.8 19.0 79 4 WNW 10 30.24 0.00
KILWOODR2 Woodridge Woodridge 12/17 13:49:52 26.3 21.0 80 4 WNW 4 30.12 0.00
KILWOODR1 Woodridge 75th Street/ Janes Ave 12/17 13:49:51 26.8 21.0 80 4 SE 4 29.41 0.00
KILBATAV5 Batavia Fermi National Accelerator Laboratory 12/17 13:43:32 25.5 20.0 80 6 WNW 14 30.21 0.00
KILBOLIN15 Bolingbrook Winding Meadows 12/17 13:49:50 26.6 14.0 58 3 WNW 6 30.19 0.00
KILDOWNE3 Downers Grove Maple Woods West 12/17 13:49:50 27.6 24.0 87 4 North 5 30.27 0.00
KILBOLIN12 Bolingbrook UnderTheThunder HQ 12/17 13:49:49 27.2 21.0 78 5 NW 5 30.24 0.00
KILBOLIN13 Bolingbrook UnderTheThunder.org Van 12/17 11:57:06 25.8 20.0 79 1 NE 1 30.22 0.00
KILGLENE10 Glen Ellyn Hillside Avenue 12/17 13:47:09 25.3 22.0 85 0 North 0 29.47 0.00
KILAUROR22 Aurora Lakewood Valley 12/17 13:48:10 25.9 22.0 84 8 ESE 0 29.99 0.00
KILWOODR6 Woodridge Kelly Court 12/17 13:46:05 29.3 24.0 81 0 North 0 30.22 0.00
KDPA Chicago DuPage Official Station 12/17 12:52:00 25.0 17.0 72 10 WNW --- 30.25 ---
KLOT Romeoville Official Station 12/17 13:35:00 26.0 18.0 72 13 WNW --- 30.22 ---
KARR Aurora Official Station 12/17 12:52:00 27.0 18.0 69 15 WNW --- 30.26 ---
KJOT Joliet Official Station 12/17 13:35:00 27.0 18.0 70 9 WNW --- 30.23 ---
Full Advisory Text
No Warnings

Ambient Weather and Weather Underground
 Never base important decisions on this or any weather information obtained from the Internet
Updated Automatically by Ambient Weather's Virtual Weather Station  V14.01